(147706) = 2005 GZ214

Discovered at Socorro on 2005-04-09 by LINEAR.

Orbit

Orbit type: Main Belt

Note: WebGL enabled browser required.

epoch2024-03-31.0
epoch JD2460400.5
perihelion date2025-11-10.90840
perihelion JD2460990.40840
argument of perihelion (°)214.95150
ascending node (°)104.88289
inclination (°)9.17499
eccentricity0.1449516
perihelion distance (AU)1.8935792
Tisserand w.r.t. Jupiter3.6
ΔV w.r.t. Earth (km/sec)8.9
semimajor axis (AU)2.2145873
mean anomaly (°)183.57942
mean daily motion (°/day)0.29906440
aphelion distance (AU)2.536
period (years)3.3
P-vector [x]0.75709969
P-vector [y]-0.55716684
P-vector [z]-0.34112340
Q-vector [x]0.63486445
Q-vector [y]0.75063939
Q-vector [z]0.18299625
absolute magnitude16.46
phase slope0.15
uncertainty0
referenceMPEC 2024-C145
observations used895
oppositions16
arc length (days)8918
first opposition used1999
last opposition used2024
residual rms (arc-secs)0.69
perturbers coarse indicatorM-v
perturbers precise indicator003Ek
first observation date used1999-09-13.0
last observation date used2024-02-12.0
computer nameMPCLINUX
JD of orbit computation2456731.516989
perihelion JD uncertainty (days)5.6821E-05
argument of perihelion uncertainty (°)2.7989E-05
ascending node uncertainty (°)2.3254E-05
inclination uncertainty (°)5.7732E-06
eccentricity uncertainty 5.3859E-08
perihelion distance uncertainty (AU)1.2298E-07
Minimum Orbit Intersection Distances (in AU)
for orbit epoch: 2460400.5, reference: E2024-G77
Mercury1.46728
Venus1.16624
Earth0.88721
Mars0.50294
Jupiter2.72667
Saturn6.58711
Uranus15.945
Neptune27.5969

Observations

906 total observations over interval: 1999 09 13.29726 – 2024 02 12.493117
These data are available for download (format description).

Date (UT) J2000 RA J2000 Dec Magn Location Ref
1999 09 13.29726 23 58 09.56 -19 05 15.8 18.4   704 – Lincoln Laboratory ETS, New Mexico MPS 182713
1999 09 13.30857 23 58 08.98 -19 05 23.0 19.0   704 – Lincoln Laboratory ETS, New Mexico MPS 182713
1999 09 13.32023 23 58 08.37 -19 05 28.3 19.1   704 – Lincoln Laboratory ETS, New Mexico MPS 182713
1999 09 30.24136 23 43 39.24 -20 42 10.0 19.0   704 – Lincoln Laboratory ETS, New Mexico MPS 182713
1999 09 30.25684 23 43 38.46 -20 42 12.9 19.4   704 – Lincoln Laboratory ETS, New Mexico MPS 182713
1999 09 30.27032 23 43 37.78 -20 42 15.3 19.4   704 – Lincoln Laboratory ETS, New Mexico MPS 182713
1999 09 30.28370 23 43 37.05 -20 42 16.7 19.1   704 – Lincoln Laboratory ETS, New Mexico MPS 182713
1999 09 30.29703 23 43 36.45 -20 42 18.4 19.4   704 – Lincoln Laboratory ETS, New Mexico MPS 182713
2004 01 31.09600 06 37 40.77 +24 34 15.8 20.6 V 691 – Steward Observatory, Kitt Peak-Spacewatch MPS 182713
2004 01 31.12316 06 37 39.47 +24 34 22.0 21.3 V 691 – Steward Observatory, Kitt Peak-Spacewatch MPS 182713
2004 01 31.15082 06 37 38.17 +24 34 28.1 21.2 V 691 – Steward Observatory, Kitt Peak-Spacewatch MPS 182713
2005 04 09.34413 15 17 50.50 -03 06 55.3 20.0   704 – Lincoln Laboratory ETS, New Mexico MPS 181090
2005 04 09.35395 15 17 50.20 -03 06 52.2 19.9   704 – Lincoln Laboratory ETS, New Mexico MPS 181090
2005 04 09.37412 15 17 49.40 -03 06 46.4 19.9   704 – Lincoln Laboratory ETS, New Mexico MPS 181090
2005 05 06.29504 14 54 19.11 -01 12 37.4 18.8   704 – Lincoln Laboratory ETS, New Mexico MPS 181090
2005 05 06.31526 14 54 17.96 -01 12 32.8 20.2   704 – Lincoln Laboratory ETS, New Mexico MPS 181090
2005 05 06.32531 14 54 17.10 -01 12 32.7 19.8   704 – Lincoln Laboratory ETS, New Mexico MPS 181090
2005 05 06.33555 14 54 16.39 -01 12 31.1 19.2   704 – Lincoln Laboratory ETS, New Mexico MPS 181090
2005 05 20.20831 14 40 00.94 -00 58 31.3 19.2   644 – Palomar Mountain/NEAT MPS 181090
2005 05 20.22794 14 39 59.77 -00 58 31.9 19.1   644 – Palomar Mountain/NEAT MPS 181090
2005 05 20.24791 14 39 58.59 -00 58 32.5 19.2   644 – Palomar Mountain/NEAT MPS 181090
2005 05 31.27123 14 30 44.20 -01 19 04.6 19.5 V 703 – Catalina Sky Survey MPS 181090
2005 05 31.27928 14 30 43.84 -01 19 07.4 19.0 V 703 – Catalina Sky Survey MPS 181090
2005 05 31.28737 14 30 43.52 -01 19 08.0 19.9 V 703 – Catalina Sky Survey MPS 181090
2005 05 31.29548 14 30 43.16 -01 19 10.3 19.9 V 703 – Catalina Sky Survey MPS 181090
2005 06 23.17345 14 22 29.98 -03 24 41.4 19.7   644 – Palomar Mountain/NEAT MPS 181090
2005 06 23.19387 14 22 29.94 -03 24 50.5 19.6   644 – Palomar Mountain/NEAT MPS 181090
2005 06 23.21688 14 22 29.87 -03 25 00.5 19.7   644 – Palomar Mountain/NEAT MPS 181090
2005 06 26.19616 14 22 39.18 -03 48 02.6 19.9 R 699 – Lowell Observatory-LONEOS MPS 181090
2005 06 26.20994 14 22 39.29 -03 48 08.9   699 – Lowell Observatory-LONEOS MPS 181090
2005 06 26.22377 14 22 39.40 -03 48 14.4   699 – Lowell Observatory-LONEOS MPS 181090
2005 06 26.23759 14 22 39.36 -03 48 20.2   699 – Lowell Observatory-LONEOS MPS 181090
2006 11 15.28028 04 46 08.65 +11 35 52.8 19.0 V 703 – Catalina Sky Survey MPS 188696
2006 11 15.28829 04 46 08.18 +11 35 51.9 19.2 V 703 – Catalina Sky Survey MPS 188696
2006 11 15.29631 04 46 07.57 +11 35 52.2 19.5 V 703 – Catalina Sky Survey MPS 188696
2006 11 15.30431 04 46 07.17 +11 35 52.0 19.3 V 703 – Catalina Sky Survey MPS 188696
2006 11 21.32154 04 39 33.04 +11 37 52.5 19.0 V G96 – Mt. Lemmon Survey MPS 188696
2006 11 21.33207 04 39 32.32 +11 37 52.8 18.9 V G96 – Mt. Lemmon Survey MPS 188696
2006 11 21.34269 04 39 31.57 +11 37 53.2 18.9 V G96 – Mt. Lemmon Survey MPS 188696
2006 11 21.35322 04 39 30.81 +11 37 53.6 18.9 V G96 – Mt. Lemmon Survey MPS 188696
2006 11 22.21171 04 38 32.24 +11 38 26.9 18.8   G96 – Mt. Lemmon Survey MPS 188696
2006 11 22.21536 04 38 31.99 +11 38 27.0 18.9   G96 – Mt. Lemmon Survey MPS 188696
2006 11 22.21904 04 38 31.74 +11 38 27.3 18.8   G96 – Mt. Lemmon Survey MPS 188696
2006 11 22.22275 04 38 31.45 +11 38 27.3 18.8   G96 – Mt. Lemmon Survey MPS 188696
2006 11 22.28325 04 38 27.16 +11 38 30.2 18.9   G96 – Mt. Lemmon Survey MPS 188696
2006 11 22.28388 04 38 27.13 +11 38 30.1 19.0   G96 – Mt. Lemmon Survey MPS 188696
2006 11 22.28994 04 38 26.66 +11 38 30.5 18.9   G96 – Mt. Lemmon Survey MPS 188696
2006 11 22.29057 04 38 26.62 +11 38 30.5 18.9   G96 – Mt. Lemmon Survey MPS 188696
2006 11 22.29664 04 38 26.19 +11 38 30.8 18.9   G96 – Mt. Lemmon Survey MPS 188696
2006 11 22.29726 04 38 26.16 +11 38 30.7 18.8   G96 – Mt. Lemmon Survey MPS 188696
2006 11 22.30327 04 38 25.72 +11 38 31.0 18.8   G96 – Mt. Lemmon Survey MPS 188696
2006 11 22.30389 04 38 25.69 +11 38 30.9 18.8   G96 – Mt. Lemmon Survey MPS 188696
2006 11 22.39359 04 38 19.28 +11 38 34.9 18.8   G96 – Mt. Lemmon Survey MPS 188696
2006 11 22.39634 04 38 19.10 +11 38 34.9 18.9   G96 – Mt. Lemmon Survey MPS 188696
2006 11 22.39913 04 38 18.88 +11 38 35.0 18.9   G96 – Mt. Lemmon Survey MPS 188696
2006 11 22.40190 04 38 18.70 +11 38 35.1 18.9   G96 – Mt. Lemmon Survey MPS 188696
2006 11 23.38529 04 37 10.59 +11 39 20.0 18.9 V G96 – Mt. Lemmon Survey MPS 188696
2006 11 23.39118 04 37 10.16 +11 39 20.2 18.9 V G96 – Mt. Lemmon Survey MPS 188696
2006 11 23.39713 04 37 09.73 +11 39 20.5 18.8 V G96 – Mt. Lemmon Survey MPS 188696
2006 11 23.40307 04 37 09.30 +11 39 20.9 18.8 V G96 – Mt. Lemmon Survey MPS 188696
2006 11 24.32499 04 36 05.08 +11 40 08.4   291 – LPL/Spacewatch II MPS 190493
2006 11 24.32772 04 36 04.89 +11 40 08.5 18.9 V G96 – Mt. Lemmon Survey MPS 190493
2006 11 24.32889 04 36 04.79 +11 40 08.7   291 – LPL/Spacewatch II MPS 190493
2006 11 24.33285 04 36 04.51 +11 40 09.0   291 – LPL/Spacewatch II MPS 190493
2006 11 24.33522 04 36 04.35 +11 40 08.9 18.8 V G96 – Mt. Lemmon Survey MPS 190493
2006 11 24.34272 04 36 03.81 +11 40 09.1 18.9 V G96 – Mt. Lemmon Survey MPS 190493
2006 11 24.35024 04 36 03.27 +11 40 09.6 18.8 V G96 – Mt. Lemmon Survey MPS 190493
2006 11 26.42229 04 33 37.06 +11 42 15.4   291 – LPL/Spacewatch II MPS 190493
2006 11 26.42650 04 33 36.83 +11 42 15.4   291 – LPL/Spacewatch II MPS 190493
2006 11 26.43025 04 33 36.53 +11 42 15.8   291 – LPL/Spacewatch II MPS 190493
2006 11 27.16296 04 32 45.18 +11 43 06.0   291 – LPL/Spacewatch II MPS 190493
2006 11 27.16668 04 32 44.91 +11 43 06.3   291 – LPL/Spacewatch II MPS 190493
2006 11 27.17057 04 32 44.62 +11 43 06.7   291 – LPL/Spacewatch II MPS 190493
2006 11 28.26340 04 31 26.85 +11 44 29.3 19.3   704 – Lincoln Laboratory ETS, New Mexico MPS 190493
2006 11 28.27637 04 31 25.86 +11 44 29.9 19.5   704 – Lincoln Laboratory ETS, New Mexico MPS 190493
2006 11 28.28934 04 31 24.91 +11 44 30.8 19.4   704 – Lincoln Laboratory ETS, New Mexico MPS 190493
2006 11 28.30232 04 31 23.93 +11 44 32.1 19.5   704 – Lincoln Laboratory ETS, New Mexico MPS 190493
2006 12 08.26859 04 19 48.84 +12 02 46.5 19.5 R 644 – Palomar Mountain/NEAT MPS 192206
2006 12 08.28942 04 19 47.40 +12 02 49.8 19.8 R 644 – Palomar Mountain/NEAT MPS 192206
2006 12 08.31150 04 19 45.85 +12 02 52.3 19.6 R 644 – Palomar Mountain/NEAT MPS 192206
2006 12 13.25591 04 14 26.72 +12 15 51.0 19.6   704 – Lincoln Laboratory ETS, New Mexico MPS 192206
2006 12 13.26877 04 14 25.91 +12 15 52.5 19.9   704 – Lincoln Laboratory ETS, New Mexico MPS 192206
2006 12 13.28188 04 14 25.03 +12 15 55.0 19.7   704 – Lincoln Laboratory ETS, New Mexico MPS 192206
2006 12 13.29474 04 14 24.21 +12 15 56.0 19.9   704 – Lincoln Laboratory ETS, New Mexico MPS 192206
2006 12 16.20637 04 11 30.01 +12 24 48.4 19.5 C 704 – Lincoln Laboratory ETS, New Mexico MPS 294247
2006 12 16.21987 04 11 29.20 +12 24 51.0 19.3 C 704 – Lincoln Laboratory ETS, New Mexico MPS 294247
2006 12 16.23307 04 11 28.43 +12 24 53.7 19.6 C 704 – Lincoln Laboratory ETS, New Mexico MPS 294247
2006 12 20.21176 04 07 50.26 +12 38 24.3 19.8 R 644 – Palomar Mountain/NEAT MPS 192206
2006 12 20.21296 04 07 50.20 +12 38 24.4 19.7 R 644 – Palomar Mountain/NEAT MPS 192206
2006 12 20.23244 04 07 49.13 +12 38 28.6 19.9 R 644 – Palomar Mountain/NEAT MPS 192206
2006 12 20.23364 04 07 49.09 +12 38 29.1 19.5 R 644 – Palomar Mountain/NEAT MPS 192206
2006 12 20.25308 04 07 48.02 +12 38 32.8 19.4 R 644 – Palomar Mountain/NEAT MPS 192206
